Weather in Ryazgsk

Russia / Ryazan Oblast     53°42′32″N   40°03′46″E
temp.,
°C
wind,
m/s
gust,
m/s
humid.,
%
clouds,
%
prec.,
mm/h
press.,
hPa
HPBL,
m
6 march, sat
sat600:00−10nw228942 0.0 101521
03:00−11nw228723 0.0 101621
06:00−13nw12870 0.0 101621
09:00−10nw118728 0.0 101756
12:00−6nw2285100 0.0 1017322
15:00−5nw348896 0.0 1015467
18:00−9wnw339260 0.0 101623
21:00−11w349130 0.0 101640
7 march, sun
sun700:00−12w44910 0.0 101677
03:00−13wsw47920 0.0 1015106
06:00−12sw512908 0.0 1012231
09:00−8sw9178153 0.0 1009661
12:00−5sw111784100 0.1 1004992
15:00−3sw111993100 1.4 9991300
18:00−3wnw101593100 1.8 998959
21:00−8w4979100 2.1 1000189
8 march, mon
mon800:00−11sw511800 0.0 1000165
03:00−10sw612780 0.0 1000255
06:00−9sw6148959 0.0 996392
09:00−5wsw9149180 0.5 9961166
12:00−7w9148881 0.3 998949
15:00−5wnw8127887 0.4 10011346
18:00−8w7148398 0.1 1004617
21:00−10wnw6148677 0.1 1007378
9 march, tue
tue900:00−11w59949 0.0 1009198
03:00−14wnw469516 0.0 101189
06:00−16wnw349612 0.0 101252
09:00−13nw479348 0.0 1014307
12:00−12nw468897 0.1 1015579
15:00−11nw578798 0.1 1016608
18:00−15nw349274 0.0 101751
21:00−17wnw339657 0.0 102029
10 march, wed
wed1000:00−18wnw239688 0.0 102023
03:00−19sw229672 0.0 102020
06:00−15s3497100 0.3 1019150
09:00−13sse2395100 1.1 1018201
12:00−11ene2391100 0.6 1019329
15:00−11ne5792100 1.1 1019531
18:00−16nne3594100 0.1 102178
21:00−20nne349755 0.1 102340